Location: Red Deer
(52.2681°N, 113.8112°W)
Time: 19:05:14
(UTC-07:00)

N. Korean satellite - Pass Details

Date: 30 November 2022
Orbit: 407 x 442 km, 97.3° (Epoch: 05 February)

Event Time Altitude Azimuth Distance (km) Brightness Sun altitude
Rises 17:20:47 0° 183° (S) 2,439 10.5 -7.9°
Reaches altitude 10° 17:22:52 10° 191° (S) 1,584 9.7 -8.2°
Maximum altitude 17:26:06 39° 262° (W) 699 8.0 -8.7°
Drops below altitude 10° 17:29:24 10° 333° (NNW) 1,628 9.3 -9.1°
Sets 17:31:35 0° 341° (NNW) 2,517 10.1 -9.4°
